Location: Aragoneses
(41.0275°N, 4.3847°W)
Time: 09:20:39
(UTC+00:00)

Tiangong - Pass Details

Date: 20 February 2026
Orbit: 381 x 391 km, 41.5° (Epoch: 7 March)

Event Time Altitude Azimuth Distance (km) Brightness Sun altitude
Rises 20:03:26 0° 274° (W) 2,253 3.2 -24.3°
Reaches altitude 10° 20:06:01 10° 252° (WSW) 1,395 1.5 -24.8°
Enters shadow 20:07:27 15° 226° (SW) 1,115 0.6 -25.1°
